Helena, MT

10:02 PM MST on February 06, 2016 (GMT -0700)
Helena Regional

Weather History for KHLN - November, 2013

Change the Weather History Date:

Friday, November 15, 2013

  Actual Average Record
Temperature  
Mean Temperature 41 °F 33 °F  
Max Temperature 45 °F 43 °F 65 °F (1975)
Min Temperature 37 °F 22 °F -32 °F (1959)
Degree Days  
Heating Degree Days 24 32  
Month to date heating degree days 385 434  
Since 1 July heating degree days 1237 1342  
Cooling Degree Days 0 0  
Month to date cooling degree days 0 0  
Year to date cooling degree days 589 406  
Moisture  
Dew Point 18 °F    
Average Humidity 41    
Maximum Humidity 48    
Minimum Humidity 33    
Precipitation  
Precipitation 0.00 in 0.02 in 0.53 in (1952)
Month to date precipitation 0.07 0.24  
Year to date precipitation 10.21 10.57  
Snow  
Snow 0.00 in 0.10 in 6.60 in (1959)
Month to date snowfall 0.5 1.9  
Since 1 July snowfall 2.5 5.9  
Since 1 September snowfall 2.5 5.6  
Snow Depth 0.00 in    
Sea Level Pressure  
Sea Level Pressure 29.60 in    
Wind  
Wind Speed 13 mph (West)    
Max Wind Speed 26 mph    
Max Gust Speed 37 mph    
Visibility 10 miles    
Events      
T = Trace of Precipitation, MM = Missing Value Source: NWS Daily Summary

Daily Weather History Graph

Daily Weather History Graph

Search for Another Location

Airport or City:

Trip Planner

Search our weather history database for the weather conditions in past years. The results will help you decide how hot, cold, wet, or windy it might be!

Date:

Astronomy

Nov. 15, 2013 Rise Set
Actual Time 7:30 AM MST 4:54 PM MST
Civil Twilight 6:57 AM MST 5:26 PM MST
Nautical Twilight 6:20 AM MST 6:03 PM MST
Astronomical Twilight 5:45 AM MST 6:39 PM MST
Moon 3:58 PM MST (11/15) 5:24 AM MST (11/15)
Length of Visible Light 10h 29m
Length of Day
9h 23m
Waxing Gibbous, 97% of the Moon is Illuminated
Nov 15
Waxing Gibbous
Nov 17
Full
Nov 25
Last Quarter
Dec 2
New
Dec 9
First Quarter

Hourly Weather History & Observations

Time (MST) Temp. Windchill Dew Point Humidity Pressure Visibility Wind Dir Wind Speed Gust Speed Precip Events Conditions
12:53 AM 41.0 °F 32.5 °F 19.9 °F 43% 29.77 in 10.0 mi WSW 17.3 mph 26.5 mph N/A   Clear
1:53 AM 39.9 °F 32.9 °F 19.9 °F 45% 29.76 in 10.0 mi West 11.5 mph - N/A   Scattered Clouds
2:53 AM 39.9 °F 31.8 °F 19.9 °F 45% 29.74 in 10.0 mi WSW 15.0 mph 29.9 mph N/A   Mostly Cloudy
3:53 AM 41.0 °F 33.1 °F 21.0 °F 45% 29.72 in 10.0 mi West 15.0 mph 26.5 mph N/A   Mostly Cloudy
4:53 AM 39.9 °F 32.1 °F 19.9 °F 45% 29.72 in 10.0 mi WSW 13.8 mph - N/A   Overcast
5:53 AM 39.0 °F 31.8 °F 18.0 °F 43% 29.72 in 10.0 mi WSW 11.5 mph 20.7 mph N/A   Mostly Cloudy
6:53 AM 39.0 °F 28.3 °F 16.0 °F 39% 29.72 in 10.0 mi West 24.2 mph 36.8 mph N/A   Partly Cloudy
7:53 AM 39.0 °F 28.8 °F 17.1 °F 41% 29.72 in 10.0 mi West 21.9 mph 32.2 mph N/A   Partly Cloudy
8:53 AM 39.9 °F 29.7 °F 17.1 °F 40% 29.71 in 10.0 mi West 23.0 mph 29.9 mph N/A   Overcast
9:53 AM 43.0 °F 35.4 °F 18.0 °F 37% 29.69 in 10.0 mi West 16.1 mph 25.3 mph N/A   Mostly Cloudy
10:53 AM 41.0 °F 31.4 °F 17.1 °F 38% 29.68 in 10.0 mi West 21.9 mph 32.2 mph N/A   Scattered Clouds
11:53 AM 43.0 °F 34.5 °F 18.0 °F 37% 29.64 in 10.0 mi West 19.6 mph 28.8 mph N/A   Overcast
12:53 PM 44.1 °F 36.5 °F 18.0 °F 35% 29.60 in 10.0 mi West 17.3 mph 26.5 mph N/A   Mostly Cloudy
1:53 PM 44.1 °F 36.8 °F 18.0 °F 35% 29.56 in 10.0 mi West 16.1 mph 27.6 mph N/A   Mostly Cloudy
2:53 PM 42.1 °F 34.5 °F 18.0 °F 38% 29.54 in 10.0 mi West 15.0 mph 21.9 mph N/A   Mostly Cloudy
3:53 PM 41.0 °F 37.1 °F 18.0 °F 40% 29.53 in 10.0 mi WSW 5.8 mph - N/A   Overcast
4:53 PM 41.0 °F 35.8 °F 18.0 °F 40% 29.52 in 10.0 mi WNW 8.1 mph - N/A   Overcast
5:53 PM 41.0 °F 34.7 °F 16.0 °F 36% 29.51 in 10.0 mi WNW 10.4 mph - N/A   Overcast
6:53 PM 39.9 °F 33.9 °F 17.1 °F 40% 29.50 in 10.0 mi WNW 9.2 mph - N/A   Overcast
7:53 PM 39.9 °F 33.4 °F 18.0 °F 41% 29.47 in 10.0 mi West 10.4 mph - N/A   Overcast
8:53 PM 39.0 °F 34.0 °F 19.0 °F 45% 29.46 in 10.0 mi NW 6.9 mph - N/A   Mostly Cloudy
9:53 PM 37.9 °F - 18.0 °F 45% 29.43 in 10.0 mi Calm Calm - N/A   Overcast
10:53 PM 37.0 °F 32.4 °F 19.0 °F 48% 29.43 in 10.0 mi SSE 5.8 mph - N/A   Overcast
11:53 PM 37.0 °F - 19.9 °F 50% 29.42 in 10.0 mi Calm Calm - N/A   Overcast